KE8YN Weather Reports


Display with metric or nautical units.
time (UTC)temp
F
wind
direction
speed
MPH
gust
MPH
rain 1hr
in
rain 24hr
in
rain mn
in
humidity
%
barometer
mb
20221209170004 48 15 3.0 6.0 0.00 0.00 0.00 73 1024.4
20221209164502 48 68 6.0 6.0 0.00 0.00 0.00 72 1024.4
20221209164004 48 0 3.0 6.0 0.00 0.00 0.00 73 1024.5
20221209163502 47 330 0.0 6.0 0.00 0.00 0.00 73 1024.6
20221209163003 48 33 1.0 6.0 0.00 0.00 0.00 73 1024.6
20221209162502 48 206 0.0 6.0 0.00 0.00 0.00 74 1024.7
20221209162004 0 0 0.0 0.0 0.00 0.00 0.00
20221209161502 48 33 3.0 6.0 0.00 0.00 0.00 74 1024.9
20221209161003 0 0 0.0 0.0 0.00 0.00 0.00
20221209160502 48 18 4.0 6.0 0.00 0.00 0.00 73 1024.8
20221209160008 0 0 0.0 0.0 0.00 0.00 0.00
20221209155503 48 64 2.0 6.0 0.00 0.00 0.00 72 1024.9
20221209155004 49 284 4.0 6.0 0.00 0.00 0.00 73 1025.0
20221209154502 49 165 2.0 6.0 0.00 0.00 0.00 73 1025.0
20221209154003 49 351 0.0 6.0 0.00 0.00 0.00 72 1025.1
20221209153004 48 26 5.0 6.0 0.00 0.00 0.00 72 1025.1
20221209152003 48 49 3.0 6.0 0.00 0.00 0.00 73 1025.1
20221209151503 48 26 1.0 6.0 0.00 0.00 0.00 73 1025.1
20221209151004 48 213 3.0 6.0 0.00 0.00 0.00 74 1025.1
20221209150503 48 52 3.0 6.0 0.00 0.00 0.00 74 1025.0
20221209150004 0 0 0.0 0.0 0.00 0.00 0.00
20221209145502 47 1 4.0 6.0 0.00 0.00 0.00 74 1025.0
20221209145003 47 22 6.0 6.0 0.00 0.00 0.00 75 1025.1
20221209144502 47 33 4.0 6.0 0.00 0.00 0.00 75 1025.0
20221209144003 0 0 0.0 0.0 0.00 0.00 0.00
20221209143502 47 12 3.0 6.0 0.00 0.00 0.00 76 1025.0
20221209143003 46 43 1.0 6.0 0.00 0.00 0.00 77 1025.0
20221209142502 46 22 1.0 6.0 0.00 0.00 0.00 76 1024.9
20221209142003 46 11 0.0 6.0 0.00 0.00 0.00 77 1024.9
20221209141502 46 73 2.0 6.0 0.00 0.00 0.00 76 1024.9
20221209141003 46 358 4.0 6.0 0.00 0.00 0.00 76 1024.8
20221209140503 46 18 6.0 6.0 0.00 0.00 0.00 76 1024.8
20221209140005 46 15 3.0 6.0 0.00 0.00 0.00 76 1024.8
20221209135502 45 354 4.0 6.0 0.00 0.00 0.00 76 1024.8
20221209135003 46 56 4.0 6.0 0.00 0.00 0.00 76 1024.8
20221209134515 45 9 5.0 6.0 0.00 0.00 0.00 77 1024.7
20221209134003 45 91 4.0 6.0 0.00 0.00 0.00 78 1024.7
20221209133502 45 28 4.0 6.0 0.00 0.00 0.00 78 1024.6
20221209133003 45 225 1.0 6.0 0.00 0.00 0.00 79 1024.6
20221209132502 45 2 1.0 6.0 0.00 0.00 0.00 78 1024.6
20221209132003 44 37 2.0 6.0 0.00 0.00 0.00 79 1024.5
20221209131502 44 352 0.0 6.0 0.00 0.00 0.00 79 1024.5
20221209131004 45 358 1.0 6.0 0.00 0.00 0.00 79 1024.4
20221209130503 45 9 0.0 6.0 0.00 0.00 0.00 79 1024.4
20221209130004 44 9 0.0 6.0 0.00 0.00 0.00 80 1024.4
20221209125502 44 9 0.0 6.0 0.00 0.00 0.00 79 1024.4
20221209125003 0 0 0.0 0.0 0.00 0.00 0.00
20221209124003 44 9 0.0 6.0 0.00 0.00 0.00 80 1024.5
20221209123502 44 9 0.0 6.0 0.00 0.00 0.00 79 1024.4
20221209123004 44 9 0.0 6.0 0.00 0.00 0.00 79 1024.3
20221209122502 44 358 1.0 6.0 0.00 0.00 0.00 79 1024.5
20221209121502 44 32 3.0 6.0 0.00 0.00 0.00 78 1024.3
20221209121004 44 19 4.0 6.0 0.00 0.00 0.00 79 1024.3
20221209120503 44 15 4.0 6.0 0.00 0.00 0.00 78 1024.2
20221209120004 0 0 0.0 0.0 0.00 0.00 0.00
20221209115503 44 26 3.0 6.0 0.00 0.00 0.00 79 1024.3
20221209115004 44 11 4.0 6.0 0.00 0.00 0.00 79 1024.4
20221209114502 44 9 4.0 6.0 0.00 0.00 0.00 78 1024.2
20221209114004 44 43 0.0 6.0 0.00 0.00 0.00 79 1024.4
20221209113503 44 11 4.0 6.0 0.00 0.00 0.00 79 1024.4
20221209113004 45 57 2.0 6.0 0.00 0.00 0.00 79 1024.3
20221209112502 45 66 3.0 6.0 0.00 0.00 0.00 79 1024.3
20221209112003 0 0 0.0 0.0 0.00 0.00 0.00
20221209111503 44 82 1.0 6.0 0.00 0.00 0.00 79 1024.1
20221209111003 0 0 0.0 0.0 0.00 0.00 0.00
20221209110502 45 352 4.0 6.0 0.00 0.00 0.00 79 1024.0
20221209110006 45 42 4.0 6.0 0.00 0.00 0.00 79 1023.9
20221209104502 45 104 1.0 6.0 0.00 0.00 0.00 80 1024.0
20221209104003 44 82 3.0 6.0 0.00 0.00 0.00 81 1024.0
20221209103003 0 0 0.0 0.0 0.00 0.00 0.00
20221209102503 44 82 0.0 6.0 0.00 0.00 0.00 81 1024.0
20221209102003 44 26 0.0 6.0 0.00 0.00 0.00 81 1024.0
20221209101503 44 344 0.0 6.0 0.00 0.00 0.00 80 1023.9
20221209101004 44 344 0.0 6.0 0.00 0.00 0.00 80 1023.9
20221209100503 44 14 0.0 6.0 0.00 0.00 0.00 81 1023.8
20221209100005 45 14 1.0 6.0 0.00 0.00 0.00 80 1023.8
20221209095503 45 30 0.0 6.0 0.00 0.00 0.00 80 1023.7
20221209095003 45 30 0.0 6.0 0.00 0.00 0.00 80 1023.8
20221209094502 45 30 0.0 6.0 0.00 0.00 0.00 80 1023.8
20221209093502 46 23 0.0 6.0 0.00 0.00 0.00 81 1023.8
20221209093004 46 23 0.0 6.0 0.00 0.00 0.00 80 1023.8
20221209092503 44 23 0.0 6.0 0.00 0.00 0.00 80 1023.9
20221209092003 46 23 0.0 6.0 0.00 0.00 0.00 80 1023.8
20221209091503 46 23 0.0 6.0 0.00 0.00 0.00 81 1023.9
20221209091004 0 0 0.0 0.0 0.00 0.00 0.00
20221209090503 47 23 3.0 6.0 0.00 0.00 0.00 81 1023.8
20221209090005 47 21 2.0 6.0 0.00 0.00 0.00 81 1023.8
20221209085503 47 8 4.0 6.0 0.00 0.00 0.00 82 1023.9
20221209085004 47 49 4.0 6.0 0.00 0.00 0.00 82 1023.8
20221209084502 47 70 3.0 6.0 0.00 0.00 0.00 80 1023.8
20221209084003 47 60 3.0 6.0 0.00 0.00 0.00 80 1023.8
20221209083502 47 7 4.0 6.0 0.00 0.00 0.00 81 1023.9
20221209083139 0 0 0.0 0.0 0.00 0.00 0.00
20221209083004 0 0 0.0 0.0 0.00 0.00 0.00
20221209082502 48 85 1.0 6.0 0.00 0.00 0.00 82 1023.9
20221209082003 0 0 0.0 0.0 0.00 0.00 0.00
20221209081502 48 67 4.0 6.0 0.00 0.00 0.00 83 1023.9
20221209081004 48 352 4.0 6.0 0.00 0.00 0.00 82 1024.0
20221209080502 48 29 2.0 6.0 0.00 0.00 0.00 82 1024.0
20221209080004 48 30 4.0 6.0 0.00 0.00 0.00 81 1024.1
20221209075502 48 4 0.0 6.0 0.00 0.00 0.00 81 1024.0
20221209075003 48 53 4.0 6.0 0.00 0.00 0.00 81 1024.0
20221209074503 48 16 5.0 6.0 0.00 0.00 0.00 81 1024.0
20221209074003 48 8 5.0 6.0 0.00 0.00 0.00 82 1024.0
20221209073503 48 21 4.0 6.0 0.00 0.00 0.00 83 1024.0
20221209073005 48 7 6.0 6.0 0.00 0.00 0.00 83 1024.0
20221209072503 47 16 3.0 6.0 0.00 0.00 0.00 83 1024.0
20221209072004 48 11 2.0 6.0 0.00 0.00 0.00 82 1024.0
20221209071503 48 8 4.0 6.0 0.00 0.00 0.00 81 1024.0
20221209071003 0 0 0.0 0.0 0.00 0.00 0.00
20221209070503 48 8 5.0 6.0 0.00 0.00 0.00 82 1024.0
20221209070005 0 0 0.0 0.0 0.00 0.00 0.00
20221209065502 48 67 3.0 6.0 0.00 0.00 0.00 85 1024.0
20221209065004 48 28 5.0 6.0 0.00 0.00 0.00 85 1024.0
20221209064503 48 2 5.0 6.0 0.00 0.00 0.00 85 1024.1
20221209064004 48 14 5.0 6.0 0.00 0.00 0.00 85 1024.1
20221209063502 48 5 3.0 6.0 0.00 0.00 0.00 85 1024.1
20221209063004 48 63 1.0 6.0 0.00 0.00 0.00 84 1023.9
20221209062503 48 56 0.0 6.0 0.00 0.00 0.00 84 1024.0
20221209062003 49 56 0.0 6.0 0.00 0.00 0.00 84 1023.9
20221209061502 49 56 4.0 6.0 0.00 0.00 0.00 83 1023.9
20221209061005 48 40 6.0 6.0 0.00 0.00 0.00 83 1023.9
20221209060502 49 12 2.0 6.0 0.00 0.00 0.00 82 1024.0
20221209060004 48 67 3.0 6.0 0.00 0.00 0.00 82 1024.0
20221209055503 49 8 4.0 6.0 0.00 0.00 0.00 82 1024.1
20221209055003 49 8 2.0 6.0 0.00 0.00 0.00 82 1024.1
20221209054502 47 36 2.0 6.0 0.00 0.00 0.00 82 1024.3
20221209053502 49 14 1.0 6.0 0.00 0.00 0.00 82 1024.0
20221209053004 49 358 0.0 6.0 0.00 0.00 0.00 82 1024.1
20221209052503 49 358 1.0 6.0 0.00 0.00 0.00 82 1024.2
20221209052003 49 14 1.0 6.0 0.00 0.00 0.00 82 1024.3
20221209051503 48 11 4.0 6.0 0.00 0.00 0.00 82 1024.0
20221209051005 49 19 4.0 6.0 0.00 0.00 0.00 82 1024.0
20221209050503 49 70 5.0 6.0 0.00 0.00 0.00 82 1023.9
20221209050006 49 64 2.0 6.0 0.00 0.00 0.00 83 1023.8
20221209045503 47 11 3.0 6.0 0.00 0.00 0.00 84 1024.1
20221209045003 47 358 1.0 6.0 0.00 0.00 0.00 85 1024.1
20221209044503 49 64 5.0 6.0 0.00 0.00 0.00 86 1024.0
20221209043502 49 66 1.0 6.0 0.00 0.00 0.00 88 1024.1
20221209043004 0 0 0.0 0.0 0.00 0.00 0.00
20221209042503 49 12 0.0 6.0 0.00 0.00 0.00 89 1024.1
20221209041503 48 12 0.0 6.0 0.00 0.00 0.00 89 1023.7
20221209041003 49 12 1.0 6.0 0.00 0.00 0.00 88 1023.7
20221209040502 48 29 3.0 6.0 0.00 0.00 0.00 88 1023.5
20221209040005 48 357 0.0 6.0 0.00 0.00 0.00 88 1023.7
20221209035503 49 47 0.0 6.0 0.00 0.00 0.00 88 1024.0
20221209035004 49 47 0.0 6.0 0.00 0.00 0.00 88 1024.2
20221209034502 49 47 0.0 6.0 0.00 0.00 0.00 88 1024.2
20221209034003 0 0 0.0 0.0 0.00 0.00 0.00
20221209033503 50 47 0.0 6.0 0.00 0.00 0.00 88 1024.0
20221209033003 50 47 0.0 6.0 0.00 0.00 0.00 88 1023.7
20221209032502 50 47 0.0 6.0 0.00 0.00 0.00 87 1023.7
20221209032005 50 47 0.0 6.0 0.00 0.00 0.00 86 1023.6
20221209031503 50 47 0.0 6.0 0.00 0.00 0.00 86 1023.5
20221209031004 50 47 0.0 6.0 0.00 0.00 0.00 86 1023.6
20221209030515 50 47 0.0 6.0 0.00 0.00 0.00 87 1023.5
20221209030004 0 0 0.0 0.0 0.00 0.00 0.00
20221209025503 50 47 0.0 6.0 0.00 0.00 0.00 87 1023.8
20221209025004 50 47 0.0 6.0 0.00 0.00 0.00 86 1023.7
20221209024502 50 47 0.0 6.0 0.00 0.00 0.00 86 1023.8
20221209024004 0 0 0.0 0.0 0.00 0.00 0.00
20221209023502 50 47 0.0 6.0 0.00 0.00 0.00 86 1023.4
20221209023003 0 0 0.0 0.0 0.00 0.00 0.00
20221209022502 50 22 0.0 6.0 0.00 0.00 0.00 86 1023.4
20221209022004 50 22 0.0 6.0 0.00 0.00 0.00 86 1023.5
20221209021502 50 22 0.0 6.0 0.00 0.00 0.00 87 1023.6
20221209021004 0 0 0.0 0.0 0.00 0.00 0.00
20221209020502 50 19 0.0 6.0 0.00 0.00 0.00 87 1023.6
20221209020004 0 0 0.0 0.0 0.00 0.00 0.00
20221209015502 50 19 0.0 6.0 0.00 0.00 0.00 87 1023.7
20221209015003 0 0 0.0 0.0 0.00 0.00 0.00
20221209014503 50 19 0.0 6.0 0.00 0.00 0.00 87 1023.7
20221209014004 50 19 0.0 6.0 0.00 0.00 0.00 87 1023.7
20221209013502 50 19 0.0 6.0 0.00 0.00 0.00 88 1023.8
20221209013004 50 19 0.0 6.0 0.00 0.00 0.00 88 1023.9
20221209012503 50 19 0.0 6.0 0.00 0.00 0.00 87 1024.0
20221209012004 50 19 0.0 6.0 0.00 0.00 0.00 87 1024.0
20221209011503 50 19 0.0 6.0 0.00 0.00 0.00 88 1024.0
20221209011003 0 0 0.0 0.0 0.00 0.00 0.00
20221209010503 50 19 0.0 6.0 0.00 0.00 0.00 87 1023.9
20221209010004 0 0 0.0 0.0 0.00 0.00 0.00
20221209005503 50 19 0.0 6.0 0.00 0.00 0.00 88 1023.8
20221209005006 0 0 0.0 0.0 0.00 0.00 0.00
20221209004503 50 19 0.0 6.0 0.00 0.00 0.00 88 1023.8
20221209004003 0 0 0.0 0.0 0.00 0.00 0.00
20221209003503 50 19 0.0 6.0 0.00 0.00 0.00 89 1023.8
20221209003004 50 19 0.0 6.0 0.00 0.00 0.00 89 1023.7
20221209002504 50 19 0.0 6.0 0.00 0.00 0.00 89 1023.7
20221209001502 50 19 0.0 6.0 0.00 0.00 0.00 89 1023.7
20221209001004 0 0 0.0 0.0 0.00 0.00 0.00
20221209000502 50 19 0.0 6.0 0.00 0.00 0.00 88 1023.5
20221209000004 0 0 0.0 0.0 0.00 0.00 0.00
20221208235503 50 19 0.0 6.0 0.00 0.00 0.00 87 1023.5
20221208235003 0 0 0.0 0.0 0.00 0.00 0.00
20221208234503 50 19 0.0 6.0 0.00 0.00 0.00 86 1023.4
20221208234003 0 0 0.0 0.0 0.00 0.00 0.00
20221208233503 51 8 0.0 6.0 0.00 0.00 0.00 86 1023.4
20221208233003 0 0 0.0 0.0 0.00 0.00 0.00
20221208232503 51 8 0.0 6.0 0.00 0.00 0.00 85 1023.5
20221208232004 51 8 0.0 6.0 0.00 0.00 0.00 85 1023.5
20221208231503 51 8 0.0 6.0 0.00 0.00 0.00 85 1023.4
20221208231004 51 8 0.0 6.0 0.00 0.00 0.00 85 1023.6
20221208230502 51 8 0.0 6.0 0.00 0.00 0.00 85 1023.6
20221208230005 51 8 0.0 6.0 0.00 0.00 0.00 85 1023.7
20221208225503 51 8 0.0 6.0 0.00 0.00 0.00 85 1023.8
20221208225020 51 8 0.0 6.0 0.00 0.00 0.00 85 1023.9
20221208225003 0 0 0.0 0.0 0.00 0.00 0.00
20221208224004 0 0 0.0 0.0 0.00 0.00 0.00
20221208223503 51 8 1.0 6.0 0.00 0.00 0.00 85 1023.9
20221208223004 0 0 0.0 0.0 0.00 0.00 0.00
20221208222502 52 5 1.0 6.0 0.00 0.00 0.00 84 1023.0
20221208222003 0 0 0.0 0.0 0.00 0.00 0.00
20221208221502 52 33 0.0 6.0 0.00 0.00 0.00 85 1023.5
20221208221019 52 18 0.0 6.0 0.00 0.00 0.00 85 1023.1
20221208221014 0 0 0.0 0.0 0.00 0.00 0.00
20221208220502 52 18 0.0 6.0 0.00 0.00 0.00 85 1023.0
20221208220006 52 26 0.0 6.0 0.00 0.00 0.00 85 1022.9
20221208215503 52 26 1.0 6.0 0.00 0.00 0.00 85 1022.8
20221208215004 52 45 0.0 6.0 0.00 0.00 0.00 85 1022.7
20221208214503 52 45 2.0 6.0 0.00 0.00 0.00 85 1022.8
20221208213502 52 23 0.0 6.0 0.00 0.00 0.00 86 1023.0
20221208213004 52 23 1.0 6.0 0.00 0.00 0.00 85 1023.0
20221208212503 52 347 2.0 6.0 0.00 0.00 0.00 86 1022.8
20221208212004 52 15 1.0 6.0 0.00 0.00 0.00 86 1022.7
20221208211005 53 15 0.0 6.0 0.00 0.00 0.00 87 1023.0
20221208211003 0 0 0.0 0.0 0.00 0.00 0.00
20221208210503 53 14 4.0 6.0 0.00 0.00 0.00 88 1023.0
20221208210005 0 0 0.0 0.0 0.00 0.00 0.00
20221208205503 53 32 1.0 6.0 0.00 0.00 0.00 89 1023.0
20221208205003 0 0 0.0 0.0 0.00 0.00 0.00
20221208204502 53 66 2.0 6.0 0.00 0.00 0.00 90 1023.0
20221208204004 0 0 0.0 0.0 0.00 0.00 0.00
20221208203503 53 14 0.0 6.0 0.00 0.00 0.00 89 1023.0
20221208203005 53 15 3.0 6.0 0.00 0.00 0.00 89 1023.1
20221208202503 53 71 0.0 6.0 0.00 0.00 0.00 89 1023.2
20221208202003 53 71 0.0 6.0 0.00 0.00 0.00 89 1023.3
20221208201003 0 0 0.0 0.0 0.00 0.00 0.00
20221208200503 53 71 4.0 6.0 0.00 0.00 0.00 88 1023.1
20221208200005 54 8 0.0 6.0 0.00 0.00 0.00 87 1023.2
20221208195502 54 8 0.0 6.0 0.00 0.00 0.00 87 1023.4
20221208195005 54 345 0.0 6.0 0.00 0.00 0.00 87 1023.4
20221208194503 54 345 0.0 6.0 0.00 0.00 0.00 87 1023.4
20221208194003 0 0 0.0 0.0 0.00 0.00 0.00
20221208193514 54 345 0.0 6.0 0.00 0.00 0.00 87 1023.2
20221208192502 54 345 0.0 6.0 0.00 0.00 0.00 86 1023.0
20221208191516 55 77 4.0 6.0 0.00 0.00 0.00 84 1023.2
20221208191004 55 21 2.0 6.0 0.00 0.00 0.00 84 1023.3
20221208185503 55 82 1.0 6.0 0.00 0.00 0.00 85 1023.3
20221208185004 0 0 0.0 0.0 0.00 0.00 0.00
20221208184502 55 46 0.0 6.0 0.00 0.00 0.00 84 1023.4
20221208184004 55 46 0.0 6.0 0.00 0.00 0.00 85 1023.5
20221208183503 55 75 2.0 6.0 0.00 0.00 0.00 84 1023.4
20221208183005 55 90 4.0 6.0 0.00 0.00 0.00 84 1023.5
20221208182502 55 59 5.0 6.0 0.00 0.00 0.00 84 1023.5
20221208182004 0 0 0.0 0.0 0.00 0.00 0.00
20221208181503 56 75 3.0 6.0 0.00 0.00 0.00 84 1023.7
20221208181004 55 75 4.0 6.0 0.00 0.00 0.00 84 1023.8
20221208180504 56 84 5.0 6.0 0.00 0.00 0.00 84 1023.9
20221208180004 56 70 5.0 6.0 0.00 0.00 0.00 84 1023.8
20221208175503 55 18 1.0 6.0 0.00 0.00 0.00 84 1023.9
20221208175005 56 73 6.0 6.0 0.00 0.00 0.00 83 1023.7
20221208174502 56 5 6.0 6.0 0.00 0.00 0.00 82 1023.8
20221208174004 56 75 2.0 6.0 0.00 0.00 0.00 83 1023.7
20221208173503 56 32 3.0 6.0 0.00 0.00 0.00 83 1023.8
20221208173242 56 22 2.0 6.0 0.00 0.00 0.00 82 1023.9
20221208173004 56 22 2.0 6.0 0.00 0.00 0.00 82 1023.9
20221208172503 56 61 7.0 6.0 0.00 0.00 0.00 81 1024.1
20221208172005 56 73 8.0 6.0 0.00 0.00 0.00 80 1024.0
20221208171503 56 84 6.0 6.0 0.00 0.00 0.00 81 1023.9